PBO Station Position Time Series. Reference Frame : NAM14
Format Version,1.1.0
4-character ID,P816
Station name,Quillsdbm_WA2013
Begin Date, 2013-09-07
End Date, 2019-10-07
Release Date, 2019-10-08
Reference position, 47.9371108828 North Latitude, -124.5570866752 East Longitude, 35.75280 meters elevation,
Date, North (mm), East (mm), Vertical (mm), North Std. Deviation (mm), East Std. Deviation (mm),              Vertical Std. Deviation (mm), Quality,
2013-09-07,0.00, 0.00, 0.00, 2.18, 1.49, 6.84, repro,
2013-09-08,-0.08, 0.02, -6.70, 2.81, 1.83, 8.52, repro,
2014-01-30,-1.09, -0.35, -6.84, 6.57, 4.06, 22.02, repro,
2014-01-31,0.59, -0.38, -10.99, 2.16, 1.48, 6.85, repro,
2014-02-01,0.82, -0.19, -12.77, 2.21, 1.48, 6.88, repro,
2014-02-02,1.59, -0.32, -9.22, 2.25, 1.51, 7.09, repro,
2014-02-03,0.61, -0.84, -11.69, 2.67, 1.70, 8.11, repro,
2014-02-04,0.31, 0.61, -10.87, 2.20, 1.48, 6.90, repro,
2014-02-05,0.17, 0.41, -11.01, 2.23, 1.48, 6.92, repro,
2014-02-06,1.43, -0.03, -7.05, 2.16, 1.46, 6.77, repro,
2014-02-07,0.88, -0.17, -3.79, 2.19, 1.51, 7.00, repro,
2014-02-08,1.47, -0.49, -2.99, 2.16, 1.45, 6.74, repro,
2014-02-09,0.73, 0.36, -7.08, 2.35, 1.56, 7.28, repro,
2014-02-10,1.33, 1.27, -10.76, 2.28, 1.52, 7.11, repro,
2014-02-11,0.84, 0.05, -3.64, 2.18, 1.46, 6.80, repro,
2014-02-12,1.35, 0.90, -5.48, 2.17, 1.47, 6.81, repro,
2014-02-13,1.99, 0.38, -11.79, 2.23, 1.49, 6.91, repro,
2014-02-14,2.15, 1.13, -4.06, 2.25, 1.48, 6.87, repro,
2014-02-15,1.98, 0.24, -11.03, 2.20, 1.50, 6.92, repro,
2014-02-16,-0.19, -0.46, -6.34, 2.18, 1.46, 6.80, repro,
2014-02-17,1.33, 0.20, -5.91, 2.22, 1.50, 6.94, repro,
2014-02-18,1.04, 0.84, -9.54, 2.27, 1.53, 6.99, repro,
2014-02-19,0.33, 0.47, -7.90, 2.23, 1.51, 6.94, repro,
2014-02-20,-0.13, 0.80, -11.92, 2.20, 1.47, 6.86, repro,
2014-02-21,-0.11, 0.50, -12.66, 2.18, 1.46, 6.79, repro,
2014-02-22,1.72, 1.27, -12.46, 2.19, 1.48, 6.80, repro,
2014-02-23,0.84, 1.82, -21.40, 2.46, 1.59, 7.36, repro,
2014-02-24,1.16, 1.21, -24.72, 2.27, 1.51, 7.01, repro,
2014-02-25,1.47, 0.94, -19.02, 2.28, 1.52, 7.02, repro,
2014-02-26,0.64, 0.26, -7.33, 2.23, 1.54, 7.02, repro,
2014-02-27,0.57, 0.46, -8.80, 2.27, 1.58, 7.16, repro,
2014-02-28,0.86, 0.34, -10.63, 2.31, 1.59, 7.27, repro,
2014-03-01,1.68, 0.76, -13.45, 2.31, 1.53, 7.08, repro,
2014-03-02,1.36, -0.08, -15.75, 2.26, 1.52, 7.00, repro,
2014-03-03,0.39, 1.28, -14.71, 2.32, 1.56, 7.13, repro,
2014-03-04,-0.45, 1.16, -16.06, 2.32, 1.56, 7.13, repro,
2014-03-05,0.04, 1.62, -15.08, 2.26, 1.53, 7.01, repro,
2014-03-06,1.93, 1.69, -9.62, 2.20, 1.49, 6.87, repro,
2014-03-07,0.56, 1.91, -13.53, 2.40, 1.59, 7.35, repro,
2014-03-08,0.78, 1.59, -16.11, 2.28, 1.54, 7.07, repro,
2014-03-09,0.66, 1.23, -11.63, 2.20, 1.47, 6.78, repro,
2014-03-10,0.60, 0.94, -9.70, 2.20, 1.47, 6.77, repro,
2014-03-11,1.27, 1.90, -18.65, 2.20, 1.47, 6.81, repro,
2014-03-12,1.28, 1.67, -16.94, 2.20, 1.48, 6.81, repro,
2014-03-13,1.32, 1.16, -10.02, 2.22, 1.48, 6.86, repro,
2014-03-14,0.30, 0.89, -11.32, 2.23, 1.49, 6.91, repro,
2014-03-15,0.38, 1.91, -17.34, 2.22, 1.52, 7.03, repro,
2014-03-16,0.35, 2.30, -18.87, 2.20, 1.48, 6.88, repro,
2014-03-17,2.70, 0.90, -20.09, 2.20, 1.49, 6.86, repro,
2014-03-18,0.46, 1.74, -16.37, 2.21, 1.48, 6.88, repro,
2014-03-19,1.28, 1.04, -18.09, 2.27, 1.52, 7.04, repro,
2014-03-20,0.73, 0.20, -12.83, 2.26, 1.53, 7.02, repro,
2014-03-21,1.29, 1.05, -15.93, 2.20, 1.48, 6.87, repro,
2014-03-22,1.67, 1.13, -19.42, 2.19, 1.48, 6.82, repro,
2014-03-23,0.73, 1.46, -17.55, 2.19, 1.47, 6.80, repro,
2014-03-24,1.12, 1.53, -15.77, 2.20, 1.47, 6.83, repro,
2014-03-25,-0.45, 0.45, -9.81, 2.22, 1.48, 6.89, repro,
2014-03-26,0.42, 0.26, -4.61, 2.20, 1.47, 6.81, repro,
2014-03-27,0.08, 1.06, -6.51, 2.21, 1.47, 6.85, repro,
2014-03-28,-0.34, 2.35, -8.43, 2.19, 1.47, 6.78, repro,
2014-03-29,-0.10, 0.94, -16.87, 2.29, 1.52, 6.93, repro,
2014-03-30,0.41, 1.66, -19.07, 2.21, 1.48, 6.84, repro,
2014-03-31,-0.30, 1.73, -17.16, 2.23, 1.47, 6.86, repro,
2014-04-01,0.16, 1.69, -12.05, 2.31, 1.51, 7.09, repro,
2014-04-02,-0.11, 1.40, -17.20, 2.20, 1.48, 6.84, repro,
2014-04-03,-0.04, 1.69, -14.03, 2.20, 1.48, 6.85, repro,
2014-04-04,1.07, 1.06, -13.25, 2.24, 1.50, 6.97, repro,
2014-04-05,0.84, 0.98, -14.27, 2.21, 1.48, 6.83, repro,
2014-04-06,0.74, 1.61, -9.24, 2.28, 1.51, 7.07, repro,
2014-04-07,1.55, 2.42, -14.95, 2.20, 1.47, 6.80, repro,
2014-04-08,0.77, 1.92, -14.37, 2.22, 1.49, 6.87, repro,
2014-04-09,-0.27, 1.49, -11.50, 2.21, 1.48, 6.81, repro,
2014-04-10,-0.41, 1.06, -16.28, 2.27, 1.48, 6.89, repro,
2014-04-11,1.23, 0.90, -13.53, 2.27, 1.49, 6.96, repro,
2014-04-12,1.05, 1.87, -11.34, 2.26, 1.52, 7.03, repro,
2014-04-13,0.74, 1.82, -14.80, 2.21, 1.48, 6.86, repro,
2014-04-14,0.96, 1.64, -16.67, 2.21, 1.47, 6.81, repro,
2014-04-15,2.11, 1.46, -14.20, 2.30, 1.52, 6.94, repro,
2014-04-16,0.29, 1.46, -14.32, 2.35, 1.56, 7.07, repro,
2014-04-17,-0.70, 0.83, -17.17, 2.20, 1.47, 6.81, repro,
2014-04-18,0.92, 0.86, -15.46, 2.20, 1.49, 6.85, repro,
2014-04-19,-0.19, -0.33, -9.48, 2.22, 1.49, 6.90, repro,
2014-04-20,0.24, 0.83, -14.11, 2.23, 1.48, 6.86, repro,
2014-04-21,0.25, 0.52, -15.54, 2.23, 1.48, 6.86, repro,
2014-04-22,-0.84, 0.59, -13.79, 2.22, 1.48, 6.87, repro,
2014-04-23,0.79, 1.33, -17.74, 2.21, 1.47, 6.81, repro,
2014-04-24,0.56, 0.95, -10.49, 2.23, 1.49, 6.91, repro,
2014-04-25,1.00, 0.04, -9.68, 2.24, 1.49, 6.91, repro,
2014-04-26,-0.46, 1.35, -13.06, 2.21, 1.47, 6.76, repro,
2014-04-27,1.40, 0.35, -15.40, 2.21, 1.47, 6.80, repro,
2014-04-28,0.69, 1.69, -16.37, 2.27, 1.49, 6.91, repro,
2014-04-29,1.49, 1.26, -22.29, 2.26, 1.49, 6.91, repro,
2014-04-30,1.70, 2.13, -15.93, 2.31, 1.51, 7.06, repro,
2014-05-01,0.96, 1.38, -16.65, 2.23, 1.48, 6.88, repro,
2014-05-02,1.49, 1.44, -12.37, 2.22, 1.47, 6.82, repro,
2014-05-03,-0.83, 0.06, -16.68, 2.19, 1.47, 6.78, repro,
2014-05-04,-0.02, 0.19, -13.63, 2.26, 1.51, 6.87, repro,
2014-05-05,1.00, 1.10, -14.44, 2.20, 1.48, 6.82, repro,
2014-05-06,-0.14, 1.94, -14.38, 2.23, 1.48, 6.87, repro,
2014-05-07,0.60, 1.24, -13.26, 2.20, 1.47, 6.81, repro,
2014-05-08,-0.09, 1.20, -10.62, 2.25, 1.51, 7.04, repro,
2014-05-09,0.71, 0.56, -12.94, 2.22, 1.51, 7.01, repro,
2014-05-10,1.43, 0.12, -16.66, 2.20, 1.48, 6.82, repro,
2014-05-11,1.18, 1.65, -18.77, 2.22, 1.48, 6.87, repro,
2014-05-12,1.96, 2.29, -19.18, 2.21, 1.48, 6.84, repro,
2014-05-13,0.38, 1.60, -15.63, 2.22, 1.48, 6.86, repro,
2014-05-14,0.14, 1.89, -14.53, 2.21, 1.47, 6.83, repro,
2014-05-15,0.50, 1.04, -16.63, 2.20, 1.50, 6.91, repro,
2014-05-16,0.73, 1.66, -10.46, 2.21, 1.48, 6.83, repro,
2014-05-17,-0.10, 0.82, -10.07, 2.21, 1.48, 6.82, repro,
2014-05-18,-0.07, 1.07, -7.74, 2.21, 1.48, 6.80, repro,
2014-05-19,0.30, 0.62, -11.03, 2.22, 1.48, 6.84, repro,
2014-05-20,0.25, 0.72, -11.55, 2.22, 1.50, 6.88, repro,
2014-05-21,0.71, 1.55, -9.69, 2.20, 1.50, 6.87, repro,
2014-05-22,-0.03, 1.52, -8.29, 2.22, 1.50, 6.89, repro,
2014-05-23,0.72, 0.65, -8.67, 2.23, 1.50, 6.90, repro,
2014-05-24,1.87, 1.22, -9.69, 2.25, 1.50, 6.89, repro,
2014-05-25,1.23, 1.17, -11.95, 2.24, 1.50, 6.92, repro,
2014-05-26,-0.09, -0.49, -10.61, 2.27, 1.54, 6.98, repro,
2014-05-27,0.90, 1.12, -14.32, 2.21, 1.49, 6.86, repro,
2014-05-28,0.73, 0.72, -13.15, 2.22, 1.50, 6.88, repro,
2014-05-29,-0.69, 2.11, -11.73, 2.22, 1.49, 6.86, repro,
2014-05-30,0.88, 1.15, -10.41, 2.25, 1.50, 6.90, repro,
2014-05-31,0.11, 0.39, -11.53, 2.23, 1.48, 6.82, repro,
2014-06-01,-0.07, 1.69, -11.41, 2.20, 1.48, 6.75, repro,
2014-06-02,0.99, 0.57, -7.94, 2.21, 1.47, 6.75, repro,
2014-06-03,0.58, 0.25, -5.75, 2.22, 1.48, 6.79, repro,
2014-06-04,0.71, 1.13, -6.55, 2.23, 1.48, 6.80, repro,
2014-06-05,0.28, 1.56, -8.14, 2.29, 1.53, 6.95, repro,
2014-06-06,2.64, 1.40, -7.28, 2.23, 1.48, 6.77, repro,
2014-06-07,1.00, 0.39, -14.21, 2.20, 1.47, 6.73, repro,
2014-06-08,0.75, 0.47, -12.72, 2.22, 1.47, 6.76, repro,
2014-06-09,-1.00, 1.05, -4.23, 2.26, 1.51, 6.86, repro,
2014-06-10,0.29, 1.31, -7.30, 2.24, 1.48, 6.81, repro,
2014-06-11,0.39, 0.10, -7.62, 2.24, 1.48, 6.82, repro,
2014-06-12,0.37, 0.38, -8.32, 2.27, 1.51, 6.91, repro,
2014-06-13,0.32, 0.61, -6.38, 2.26, 1.50, 6.88, repro,
2014-06-14,0.63, 0.14, -12.07, 2.20, 1.47, 6.76, repro,
2014-06-15,-0.34, -1.06, -8.07, 2.23, 1.48, 6.82, repro,
2014-06-16,-0.20, -0.10, -5.77, 2.24, 1.48, 6.81, repro,
2014-06-17,0.88, 0.77, -8.71, 2.21, 1.47, 6.75, repro,
2014-06-18,-0.28, 0.84, -7.19, 2.20, 1.47, 6.73, repro,
2014-06-19,0.01, 0.27, -7.34, 2.21, 1.46, 6.72, repro,
2014-06-20,-1.28, 0.22, -7.15, 2.30, 1.52, 6.86, repro,
2014-06-21,-0.93, 0.17, -9.07, 2.23, 1.47, 6.78, repro,
2014-06-22,1.13, -0.05, -11.29, 2.24, 1.47, 6.81, repro,
2014-06-23,0.40, 0.17, -9.60, 2.21, 1.47, 6.77, repro,
2014-06-24,0.02, -0.88, -8.50, 2.21, 1.46, 6.74, repro,
2014-06-25,-0.02, 0.03, -11.40, 2.20, 1.47, 6.73, repro,
2014-06-26,-0.33, -1.20, 0.78, 2.23, 1.48, 6.85, repro,
2014-06-27,-0.11, -0.96, -1.39, 2.24, 1.47, 6.83, repro,
2014-06-28,0.24, -0.22, -9.35, 2.22, 1.48, 6.83, repro,
2014-06-29,1.37, 0.19, -7.71, 2.15, 1.44, 6.62, repro,
2014-06-30,0.28, 0.38, -13.41, 2.16, 1.44, 6.65, repro,
2014-07-01,0.05, 0.01, -7.91, 2.16, 1.46, 6.70, repro,
2014-07-02,0.52, -0.14, -4.30, 2.17, 1.45, 6.70, repro,
2014-07-03,-1.57, 1.25, -3.99, 2.18, 1.47, 6.78, repro,
2014-07-04,-0.50, -0.06, -3.05, 2.17, 1.47, 6.76, repro,
2014-07-05,1.50, -1.21, -4.42, 2.17, 1.44, 6.64, repro,
2014-07-06,0.68, 0.42, -9.56, 2.17, 1.46, 6.73, repro,
2014-07-07,0.56, -0.16, -4.33, 2.16, 1.45, 6.68, repro,
2014-07-08,0.92, 0.82, -4.03, 2.15, 1.45, 6.65, repro,
2014-07-09,0.36, 0.29, -2.72, 2.15, 1.44, 6.62, repro,
2014-07-10,0.00, -0.18, -1.33, 2.21, 1.47, 6.79, repro,
2014-07-11,-0.81, 0.56, -9.17, 2.18, 1.45, 6.69, repro,
2014-07-12,1.51, 0.11, -5.57, 2.19, 1.49, 6.82, repro,
2014-07-13,-0.98, 0.46, -7.49, 2.16, 1.45, 6.66, repro,
2014-07-14,0.15, 1.34, -7.57, 2.15, 1.45, 6.65, repro,
2014-07-15,0.76, -0.10, -1.27, 2.17, 1.44, 6.62, repro,
2014-07-16,-0.15, 0.09, 2.18, 2.18, 1.44, 6.66, repro,
2014-07-17,-0.65, 0.23, 4.20, 2.24, 1.48, 6.86, repro,
2014-07-18,-0.26, -0.57, 0.13, 2.16, 1.45, 6.65, repro,
2014-07-19,0.68, 0.94, 0.86, 2.16, 1.44, 6.65, repro,
2014-07-20,1.33, 0.71, 1.00, 2.17, 1.44, 6.65, repro,
2014-07-21,-1.32, 0.84, 1.10, 2.18, 1.44, 6.71, repro,
2014-07-22,-1.24, 0.61, -3.85, 2.19, 1.45, 6.71, repro,
2014-07-23,-1.43, 0.66, -5.10, 2.17, 1.45, 6.68, repro,
2014-07-24,-1.18, 1.09, -6.58, 2.17, 1.45, 6.67, repro,
2014-07-25,-0.13, 1.14, -2.58, 2.17, 1.44, 6.68, repro,
2014-07-26,0.15, 0.65, -7.36, 2.18, 1.44, 6.67, repro,
2014-07-27,-0.50, 1.16, -8.21, 2.24, 1.49, 6.85, repro,
2014-07-28,-0.72, 1.15, -8.88, 2.17, 1.44, 6.64, repro,
2014-07-29,-0.16, 0.78, -6.71, 2.17, 1.45, 6.65, repro,
2014-07-30,-1.33, -0.52, -3.35, 2.16, 1.45, 6.65, repro,
2014-07-31,-0.56, 1.68, -6.86, 2.16, 1.44, 6.62, repro,
2014-08-01,-0.27, 1.39, -11.07, 2.19, 1.47, 6.76, repro,
2014-08-02,-0.67, 0.46, -3.27, 2.17, 1.48, 6.79, repro,
2014-08-03,0.68, 0.96, -8.66, 2.25, 1.54, 7.02, repro,
2014-08-04,0.36, -0.11, -5.02, 2.20, 1.49, 6.78, repro,
2014-08-05,0.39, 1.22, -2.23, 2.22, 1.51, 6.86, repro,
2014-08-06,-0.17, 0.98, -4.39, 2.21, 1.48, 6.78, repro,
2014-08-07,0.32, 1.24, -1.68, 2.22, 1.51, 6.93, repro,
2014-08-08,0.04, -0.28, -0.29, 2.21, 1.50, 6.90, repro,
2014-08-09,-0.51, 0.19, -4.90, 2.22, 1.49, 6.85, repro,
2014-08-10,-0.38, 0.72, -2.44, 2.20, 1.49, 6.81, repro,
2014-08-11,-0.32, -0.32, -3.54, 2.21, 1.49, 6.81, repro,
2014-08-12,-2.06, -1.48, -0.84, 2.25, 1.52, 6.97, repro,
2014-08-13,-2.17, 0.52, -0.51, 2.20, 1.48, 6.78, repro,
2014-08-14,-1.37, -0.63, -3.76, 2.25, 1.51, 6.96, repro,
2014-08-15,-1.02, -0.30, -4.63, 2.26, 1.52, 6.93, repro,
2014-08-16,0.91, 0.51, -4.56, 2.20, 1.48, 6.78, repro,
2014-08-17,0.14, 0.27, -8.22, 2.20, 1.48, 6.77, repro,
2014-08-18,-1.46, 1.28, -3.94, 2.20, 1.47, 6.76, repro,
2014-08-19,-1.91, -0.61, -0.41, 2.20, 1.48, 6.80, repro,
2014-08-20,-1.90, -0.53, 1.73, 2.33, 1.55, 7.10, repro,
2014-08-21,0.53, 0.20, 1.52, 2.29, 1.54, 7.02, repro,
2014-08-22,-0.39, 0.37, -10.22, 2.21, 1.50, 6.86, repro,
2014-08-23,0.16, 0.15, -6.83, 2.20, 1.48, 6.73, repro,
2014-08-24,0.09, 0.95, -6.79, 2.21, 1.49, 6.82, repro,
2014-08-25,0.47, -0.88, -3.74, 2.22, 1.50, 6.88, repro,
2014-08-26,-0.68, 0.12, -5.66, 2.26, 1.54, 7.10, repro,
2014-08-27,-0.51, 0.28, -6.60, 2.27, 1.55, 7.13, repro,
2014-08-28,-0.31, -0.17, 4.26, 2.22, 1.50, 6.85, repro,
2014-08-29,-0.37, 0.38, 1.08, 2.20, 1.47, 6.73, repro,
2014-08-30,-1.95, -0.08, 2.14, 2.22, 1.48, 6.78, repro,
2014-08-31,-1.31, -0.07, 4.31, 2.22, 1.49, 6.80, repro,
2014-09-01,-0.21, 0.08, 2.52, 2.23, 1.49, 6.82, repro,
2014-09-02,0.90, -0.77, -3.31, 2.25, 1.51, 6.89, repro,
2014-09-03,-0.26, 0.64, -2.99, 2.20, 1.48, 6.74, repro,
2014-09-04,0.32, 0.26, -6.23, 2.18, 1.48, 6.69, repro,
2014-09-05,-0.28, 1.00, -3.06, 2.21, 1.49, 6.76, repro,
2014-09-06,0.67, 0.78, 0.35, 2.22, 1.49, 6.80, repro,
2014-09-07,0.93, 0.53, -1.79, 2.21, 1.49, 6.77, repro,
2014-09-08,1.05, 0.47, -0.85, 2.19, 1.48, 6.74, repro,
2014-09-09,1.24, -0.36, -1.84, 2.20, 1.48, 6.76, repro,
2014-09-10,1.29, 0.27, -3.36, 2.21, 1.48, 6.73, repro,
2014-09-11,1.34, 2.04, -2.53, 2.22, 1.50, 6.80, repro,
2014-09-12,-0.51, 0.94, -6.37, 2.21, 1.50, 6.79, repro,
2014-09-13,1.01, 0.85, 0.90, 2.19, 1.48, 6.72, repro,
2014-09-14,-0.08, 0.04, 0.53, 2.19, 1.48, 6.74, repro,
2014-09-15,1.01, 0.44, -3.76, 2.18, 1.48, 6.69, repro,
2014-09-16,0.41, -0.24, 2.67, 2.21, 1.50, 6.81, repro,
2014-09-17,0.72, 0.52, 2.12, 2.22, 1.50, 6.82, repro,
2014-09-18,0.91, 0.05, 4.01, 2.15, 1.48, 6.68, repro,
2014-09-19,-0.24, 1.09, -2.98, 2.18, 1.49, 6.75, repro,
2014-09-20,0.06, 0.27, 0.71, 2.14, 1.47, 6.64, repro,
2014-09-21,2.26, 0.03, -5.76, 2.17, 1.48, 6.73, repro,
2014-09-22,1.80, 0.40, -7.48, 2.17, 1.49, 6.78, repro,
2014-09-23,-1.10, -0.49, 0.17, 2.17, 1.50, 6.80, repro,
2014-09-24,-2.16, -1.74, 5.41, 2.14, 1.48, 6.70, repro,
2014-09-25,-1.48, -1.53, -4.00, 2.19, 1.52, 6.85, repro,
2014-09-26,0.77, 0.92, -5.80, 2.16, 1.48, 6.73, repro,
2014-09-27,-0.54, 1.40, -8.95, 2.16, 1.49, 6.78, repro,
2014-09-28,2.19, -0.20, -6.94, 2.16, 1.49, 6.78, repro,
2014-09-29,1.58, 0.26, -7.99, 2.21, 1.50, 6.91, repro,
2014-09-30,1.34, 0.29, -6.11, 2.14, 1.47, 6.68, repro,
2014-10-01,0.89, -0.39, -6.27, 2.16, 1.48, 6.74, repro,
2014-10-02,1.44, 0.87, -8.05, 2.23, 1.51, 6.92, repro,
2014-10-03,0.47, 0.06, -6.38, 2.18, 1.50, 6.84, repro,
2014-10-04,-0.52, 0.62, -2.85, 2.29, 1.54, 7.16, repro,
2014-10-05,-0.74, 0.67, -9.89, 2.17, 1.53, 6.81, repro,
2014-10-06,1.15, -0.71, -3.08, 2.14, 1.49, 6.76, repro,
2014-10-07,-0.78, 0.06, 0.39, 2.15, 1.48, 6.72, repro,
2014-10-08,1.16, -0.23, 1.13, 2.16, 1.50, 6.82, repro,
2014-10-09,-0.38, -0.02, -1.28, 2.19, 1.53, 6.99, repro,
2014-10-10,1.30, 0.83, -3.31, 2.15, 1.49, 6.75, repro,
2014-10-11,0.17, -0.91, -1.32, 2.14, 1.48, 6.72, repro,
2014-10-12,-0.85, -1.53, -9.12, 2.16, 1.51, 6.84, repro,
2014-10-13,0.77, 1.11, 0.41, 2.25, 1.60, 7.10, repro,
2014-10-14,1.22, -1.00, -2.61, 2.17, 1.52, 6.88, repro,
2014-10-15,-1.79, 0.27, 0.06, 2.16, 1.50, 6.79, repro,
2014-10-16,-0.27, -0.08, -1.83, 2.15, 1.49, 6.75, repro,
2014-10-17,-1.11, 0.19, -7.10, 2.12, 1.48, 6.67, repro,
2014-10-18,-4.85, -1.29, -9.25, 2.26, 1.63, 7.39, repro,
2014-10-19,-1.25, -0.66, -0.67, 2.23, 1.54, 7.00, repro,
2014-10-20,-1.22, -1.23, 1.06, 2.21, 1.55, 6.92, repro,
2014-10-21,-1.32, 1.05, -5.66, 2.23, 1.55, 7.01, repro,
2014-10-22,-0.44, -0.21, -10.48, 2.19, 1.53, 6.91, repro,
2014-10-23,-0.70, -0.56, -8.20, 2.15, 1.50, 6.76, repro,
2014-10-24,-0.47, 0.88, -4.16, 2.15, 1.50, 6.74, repro,
2014-10-25,-0.50, 0.09, -2.64, 2.13, 1.50, 6.72, repro,
2014-10-26,2.26, 0.08, -8.69, 2.16, 1.52, 6.86, repro,
2014-10-27,-0.32, 0.91, -11.33, 2.19, 1.55, 6.94, repro,
2014-10-28,-1.98, 0.85, 9.10, 2.25, 1.56, 7.03, repro,
2014-10-29,1.04, 0.25, -9.06, 2.14, 1.51, 6.76, repro,
2014-10-30,-1.25, 1.07, -9.47, 2.12, 1.50, 6.68, repro,
2014-10-31,0.73, 0.07, -0.72, 2.16, 1.52, 6.81, repro,
2014-11-01,-0.74, 1.16, -10.42, 2.14, 1.52, 6.78, repro,
2014-11-02,0.29, 1.11, -14.35, 2.13, 1.52, 6.76, repro,
2014-11-03,0.96, 0.63, -5.06, 2.16, 1.52, 6.82, repro,
2014-11-04,0.30, 2.02, -3.12, 2.20, 1.53, 6.95, repro,
2014-11-05,-0.36, 1.61, -11.78, 2.16, 1.52, 6.83, repro,
2014-11-06,-2.67, 0.76, -18.04, 2.18, 1.55, 6.93, repro,
2014-11-07,0.26, 1.93, -9.96, 2.14, 1.52, 6.78, repro,
2014-11-08,0.33, 2.11, -13.29, 2.15, 1.52, 6.81, repro,
2014-11-09,0.68, 0.63, -6.80, 2.21, 1.54, 6.94, repro,
2014-11-10,0.72, 1.89, -10.77, 2.17, 1.51, 6.80, repro,
2014-11-11,1.37, 1.22, -11.91, 2.16, 1.52, 6.80, repro,
2014-11-12,1.11, 2.16, -8.91, 2.14, 1.51, 6.79, repro,
2014-11-13,0.67, 1.18, -7.52, 2.15, 1.52, 6.81, repro,
2014-11-14,0.78, 1.80, -12.11, 2.16, 1.52, 6.84, repro,
2014-11-15,1.33, 1.10, -11.90, 2.16, 1.51, 6.80, repro,
2014-11-16,0.50, 1.46, -8.28, 2.15, 1.51, 6.81, repro,
2014-11-17,0.25, 1.79, -12.24, 2.20, 1.57, 6.98, repro,
2014-11-18,0.64, 1.35, -6.89, 2.13, 1.53, 6.83, repro,
2014-11-19,-0.29, 1.73, -9.19, 2.15, 1.53, 6.87, repro,
2014-11-20,-0.05, 1.01, -8.49, 2.21, 1.53, 7.00, repro,
2014-11-21,0.27, 0.66, -0.96, 2.32, 1.59, 7.25, repro,
2014-11-22,0.29, -0.69, -1.50, 2.27, 1.56, 7.12, repro,
2014-11-23,0.09, 0.89, -8.88, 2.19, 1.54, 7.02, repro,
2014-11-24,0.37, 1.84, -13.54, 2.20, 1.54, 7.02, repro,
2014-11-25,0.51, 1.82, -13.18, 2.27, 1.58, 7.21, repro,
2014-11-26,0.19, 1.09, -13.60, 2.21, 1.53, 7.02, repro,
2014-11-27,1.70, 3.08, -10.94, 2.18, 1.52, 6.89, repro,
2014-11-28,0.86, 1.54, -5.10, 2.25, 1.59, 7.10, repro,
2014-11-29,-0.32, 0.71, -3.72, 2.15, 1.51, 6.85, repro,
2014-11-30,0.64, 1.65, -8.26, 2.21, 1.55, 7.00, repro,
2014-12-01,0.62, 1.67, -8.18, 2.21, 1.54, 6.98, repro,
2014-12-02,0.21, 1.44, -2.19, 2.22, 1.54, 6.97, repro,
2014-12-03,0.97, 1.14, -7.08, 2.19, 1.54, 6.94, repro,
2014-12-04,0.84, 0.62, -5.22, 2.20, 1.54, 6.94, repro,
2014-12-05,-0.85, 1.74, -6.35, 2.16, 1.51, 6.87, repro,
2014-12-06,-0.46, 1.61, -13.43, 2.17, 1.52, 6.93, repro,
2014-12-07,-0.96, 2.53, -14.75, 2.16, 1.50, 6.88, repro,
2014-12-08,-1.12, 1.16, -10.62, 2.19, 1.53, 6.94, repro,
2014-12-09,-0.35, 2.42, -14.63, 2.20, 1.54, 7.01, repro,
2014-12-10,-0.44, 0.26, -9.55, 2.18, 1.53, 6.92, repro,
2014-12-11,-0.33, 0.04, -8.51, 2.20, 1.56, 7.08, repro,
2014-12-12,0.36, -1.71, -9.88, 2.17, 1.50, 6.88, repro,
2014-12-13,0.59, -0.11, -16.25, 2.17, 1.52, 6.90, repro,
2014-12-14,1.24, 0.28, -18.02, 2.11, 1.49, 6.72, repro,
2014-12-15,-1.68, 0.02, -9.02, 2.15, 1.51, 6.83, repro,
2014-12-16,-0.15, -0.26, -10.05, 2.20, 1.53, 6.94, repro,
2014-12-17,0.25, 0.69, -9.92, 2.16, 1.50, 6.85, repro,
2014-12-18,-0.04, 0.40, -5.40, 2.12, 1.49, 6.76, repro,
2014-12-19,-0.71, -0.56, -11.01, 2.16, 1.53, 7.00, repro,
2014-12-20,-0.12, -0.03, -12.64, 2.12, 1.49, 6.75, repro,
2014-12-21,2.32, 0.83, -8.79, 2.12, 1.49, 6.75, repro,
2014-12-22,1.71, 0.77, -14.94, 2.11, 1.49, 6.74, repro,
2014-12-23,1.61, 0.58, -19.45, 2.12, 1.49, 6.78, repro,
2014-12-24,-0.17, 0.16, -11.05, 2.14, 1.49, 6.79, repro,
2014-12-25,2.75, 1.22, -10.12, 2.18, 1.52, 6.88, repro,
2014-12-26,0.52, 0.49, -13.89, 2.12, 1.49, 6.76, repro,
2014-12-27,-0.58, 0.35, -13.42, 2.11, 1.48, 6.73, repro,
2014-12-28,1.57, 0.44, -18.25, 2.11, 1.48, 6.71, repro,
2014-12-29,1.60, 0.72, -17.38, 2.12, 1.48, 6.72, repro,
2014-12-30,0.60, 0.94, -21.71, 2.12, 1.48, 6.71, repro,
2014-12-31,0.20, 1.06, -13.97, 2.13, 1.49, 6.80, repro,
2015-01-01,1.62, 0.25, -11.75, 2.10, 1.48, 6.72, repro,
2015-01-02,2.04, 1.03, -14.49, 2.11, 1.48, 6.75, repro,
2015-01-03,0.54, 0.68, -15.74, 2.11, 1.49, 6.76, repro,
2015-01-04,0.10, 0.73, -14.11, 2.17, 1.49, 6.82, repro,
2015-01-05,0.14, 0.52, -21.86, 2.20, 1.58, 7.03, repro,
2015-01-06,1.05, 0.57, -17.59, 2.15, 1.51, 6.84, repro,
2015-01-07,0.25, 0.41, -20.73, 2.16, 1.53, 6.88, repro,
2015-01-08,1.19, 0.07, -20.02, 2.15, 1.52, 6.86, repro,
2015-01-09,0.63, 1.07, -13.42, 2.21, 1.55, 6.93, repro,
2015-01-10,1.49, 0.69, -7.59, 2.17, 1.51, 6.84, repro,
2015-01-11,0.50, -0.06, -10.03, 2.16, 1.51, 6.83, repro,
2015-01-12,0.38, 1.01, -14.02, 2.16, 1.51, 6.85, repro,
2015-01-13,1.02, 1.85, -13.45, 2.17, 1.52, 6.89, repro,
2015-01-14,1.17, 0.87, -16.56, 2.16, 1.50, 6.83, repro,
2015-01-15,-0.98, 0.62, -6.39, 2.15, 1.51, 6.82, repro,
2015-01-16,-0.36, 0.28, -9.81, 2.15, 1.51, 6.81, repro,
2015-01-17,0.36, 0.63, -9.11, 2.26, 1.58, 7.07, repro,
2015-01-18,0.15, 1.70, -0.61, 2.16, 1.52, 6.90, repro,
2015-01-19,-0.17, 1.32, -12.68, 2.15, 1.50, 6.81, repro,
2015-01-20,0.33, 2.47, -18.04, 2.14, 1.50, 6.78, repro,
2015-01-21,-0.26, 1.59, -9.79, 2.14, 1.49, 6.76, repro,
2015-01-22,-0.33, 0.67, -6.39, 2.14, 1.50, 6.78, repro,
2015-01-23,-1.48, 0.11, -10.70, 2.17, 1.54, 6.97, repro,
2015-01-24,-0.64, 0.82, -9.66, 2.17, 1.53, 6.97, repro,
2015-01-25,0.87, 1.20, -7.36, 2.16, 1.50, 6.83, repro,
2015-01-26,-0.60, 1.09, -13.44, 2.14, 1.50, 6.79, repro,
2015-01-27,0.68, 0.69, -6.63, 2.15, 1.51, 6.86, repro,
2015-01-28,0.17, 1.36, -15.23, 2.15, 1.51, 6.86, repro,
2015-01-29,1.00, 1.90, -17.31, 2.14, 1.49, 6.80, repro,
2015-01-30,1.50, 0.63, -19.27, 2.15, 1.49, 6.81, repro,
2015-01-31,0.88, 0.32, -12.54, 2.16, 1.50, 6.84, repro,
2015-02-01,0.41, 0.62, -8.88, 2.17, 1.52, 6.90, repro,
2015-02-02,-0.12, 0.31, -7.08, 2.16, 1.51, 6.88, repro,
2015-02-03,1.12, 0.06, -8.58, 2.19, 1.53, 6.95, repro,
2015-02-04,0.35, 1.05, -8.63, 2.17, 1.50, 6.84, repro,
2015-02-05,-0.69, 1.36, -5.12, 2.16, 1.50, 6.83, repro,
2015-02-06,0.94, -0.47, -5.94, 2.17, 1.52, 6.90, repro,
2015-02-07,-0.63, 0.44, -6.01, 2.17, 1.50, 6.85, repro,
2015-02-08,-0.82, 0.77, -9.64, 2.15, 1.50, 6.83, repro,
2015-02-09,-0.02, 1.20, -11.10, 2.16, 1.49, 6.82, repro,
2015-02-10,1.04, 1.82, -17.59, 2.23, 1.52, 6.93, repro,
2015-02-11,0.22, 1.91, -19.55, 2.21, 1.52, 6.93, repro,
2015-02-12,1.32, 0.74, -11.08, 2.16, 1.50, 6.81, repro,
2015-02-13,2.39, 1.30, -13.82, 2.16, 1.50, 6.80, repro,
2015-02-14,1.08, 1.36, -15.66, 2.17, 1.50, 6.85, repro,
2015-02-15,1.65, 1.36, -15.61, 2.17, 1.49, 6.80, repro,
2015-02-16,1.54, 1.83, -14.86, 2.18, 1.50, 6.84, repro,
2015-02-17,0.86, 1.92, -13.52, 2.15, 1.49, 6.76, repro,
2015-02-18,1.35, 1.50, -8.74, 2.16, 1.49, 6.76, repro,
2015-02-19,0.71, 1.16, -10.79, 2.20, 1.53, 6.91, repro,
2015-02-20,1.62, 1.81, -10.61, 2.24, 1.57, 7.11, repro,
2015-02-21,1.11, 1.57, -14.65, 2.18, 1.50, 6.82, repro,
2015-02-22,0.68, 1.87, -13.71, 2.15, 1.50, 6.76, repro,
2015-02-23,1.42, 0.79, -13.99, 2.16, 1.49, 6.76, repro,
2015-02-24,2.22, -0.18, -14.77, 2.24, 1.51, 6.96, repro,
2015-02-25,2.65, 0.73, -13.52, 2.18, 1.49, 6.83, repro,
2015-02-26,2.59, 1.83, -16.18, 2.18, 1.50, 6.82, repro,
2015-02-27,2.23, 0.61, -7.85, 2.18, 1.50, 6.85, repro,
2015-02-28,0.32, 1.14, -9.19, 2.16, 1.49, 6.76, repro,
2015-03-01,0.46, -0.15, -10.16, 2.17, 1.49, 6.80, repro,
2015-03-02,0.81, 0.78, -10.83, 2.18, 1.50, 6.84, repro,
2015-03-03,2.05, 0.43, -10.57, 2.19, 1.50, 6.86, repro,
2015-03-04,0.24, 0.99, -12.00, 2.18, 1.50, 6.86, repro,
2015-03-05,0.39, 0.87, -11.68, 2.22, 1.53, 6.98, repro,
2015-03-06,-0.33, 0.93, -14.25, 2.25, 1.53, 7.00, repro,
2015-03-07,1.19, 0.95, -16.79, 2.17, 1.50, 6.82, repro,
2015-03-08,0.25, 0.42, -10.23, 2.18, 1.49, 6.82, repro,
2015-03-09,0.35, 0.67, -5.68, 2.19, 1.50, 6.84, repro,
2015-03-10,0.65, 0.27, -11.71, 2.16, 1.49, 6.78, repro,
2015-03-11,-1.48, -1.22, -10.75, 2.17, 1.49, 6.79, repro,
2015-03-12,-1.33, 0.51, -15.54, 2.20, 1.53, 6.96, repro,
2015-03-13,-0.01, 0.71, -10.42, 2.18, 1.50, 6.82, repro,
2015-03-14,0.12, -0.07, -11.35, 2.18, 1.49, 6.79, repro,
2015-03-15,0.77, 0.94, -10.69, 2.18, 1.49, 6.79, repro,
2015-03-16,-0.00, 1.38, -15.78, 2.17, 1.49, 6.75, repro,
2015-03-17,0.93, 0.43, -19.09, 2.25, 1.52, 7.03, repro,
2015-03-18,1.08, 1.28, -15.63, 2.19, 1.50, 6.86, repro,
2015-03-19,0.07, 0.77, -14.13, 2.18, 1.49, 6.80, repro,
2015-03-20,-0.80, 0.40, -12.96, 2.21, 1.51, 6.93, repro,
2015-03-21,-1.10, 1.45, -11.64, 2.21, 1.51, 6.88, repro,
2015-03-22,0.09, 1.30, -13.40, 2.17, 1.49, 6.76, repro,
2015-03-23,0.13, -0.29, -6.88, 2.21, 1.53, 6.98, repro,
2015-03-24,0.64, 1.38, -10.55, 2.17, 1.49, 6.76, repro,